SCP
1 1 1 1 1 1 1 1 1 1 1 0 0 0 0 0 0 0 1 1 1 1 1 1 1 1 1 1 1 1 1 1 1 1 1 1 1 1 1 1 1 1 0
1 1 1 1 1 1 1 1 1 1 1 0 0 0 0 0 0 0 0 1 1 1 1 1 1 2 1 1 1 2 1 1 1 1 1 1 1 1 1 1 1 1 1
1 1 1 1 1 1 1 1 1 1 0 0 0 0 1 1 0 0 0 1 1 1 1 1 2 2 2 2 2 2 2 1 1 1 1 1 1 1 1 1 1 1 1
0 0 0 1 1 1 1 1 1 1 1 1 1 1 1 1 1 0 0 1 1 1 1 1 1 1 2 2 2 2 2 1 1 1 1 1 1 1 1 1 1 1 1
0 0 0 0 0 1 0 1 1 1 1 1 1 1 1 1 1 0 0 0 1 1 1 1 1 1 1 2 2 2 2 1 1 1 1 1 1 1 1 1 1 1 1
1 1 0 0 0 0 0 1 1 1 1 1 1 1 1 1 1 0 0 0 0 1 1 1 1 1 1 1 2 2 2 1 1 1 1 1 1 1 1 1 1 1 1
1 1 1 1 1 1 1 1 1 1 1 1 1 1 1 1 1 1 0 0 0 0 1 1 1 1 1 1 1 2 2 1 1 1 1 1 1 1 1 1 1 1 1
1 1 1 1 1 1 1 1 1 1 1 1 1 1 1 1 1 1 1 1 1 1 1 1 1 1 1 1 1 1 1 1 1 1 1 1 1 1 1 1 1 1 1
1 1 1 1 1 1 1 1 2 2 2 2 2 2 1 1 1 1 1 1 1 1 1 1 1 1 1 1 1 1 1 1 1 1 1 1 1 1 1 1 1 1 1
2 2 1 1 1 1 1 2 2 3 3 3 3 3 3 2 2 1 1 1 1 1 1 1 1 1 1 1 1 1 1 1 2 2 2 2 1 1 1 1 1 1 1
3 2 2 1 1 1 2 2 2 3 4 4 4 4 4 3 3 2 2 2 1 1 1 1 1 1 1 1 1 2 2 2 2 1 2 2 2 2 2 2 1 1 1
3 3 2 2 2 2 2 2 2 3 4 4 4 4 4 3 3 3 2 2 2 2 2 2 2 2 2 2 2 2 2 2 2 1 1 2 2 2 2 2 2 1 1
3 3 3 2 2 2 2 2 2 2 3 3 3 3 3 3 2 2 3 3 3 2 2 2 2 2 2 2 2 2 2 2 2 1 1 1 2 2 2 2 2 1 1
3 3 3 3 2 2 2 1 2 2 2 2 2 2 3 3 3 3 3 3 3 2 2 2 2 2 2 3 3 3 3 2 2 1 1 1 1 1 2 2 1 1 1
2 2 3 3 2 2 2 2 2 2 2 2 2 2 3 3 3 4 4 3 3 3 2 2 2 2 3 3 3 3 3 3 2 1 1 0 1 1 1 1 1 1 1
3 3 3 3 3 2 2 2 2 2 2 2 3 3 4 4 5 5 5 5 5 4 3 2 2 2 3 4 4 4 4 3 2 1 1 0 0 0 0 1 0 0 0
3 3 3 4 3 3 3 3 3 3 3 3 4 4 4 5 6 7 7 6 6 5 4 3 3 3 4 4 4 5 4 3 3 2 1 0 0 0 0 0 0 0 0
3 3 3 4 4 4 4 4 4 4 4 5 5 5 6 6 7 9 9 8 6 6 5 4 4 4 4 4 4 4 3 3 3 2 1 0 0 0 0 0 0 0 0
4 4 4 3 3 4 4 4 4 5 6 6 7 8 8 8 9 11 11 9 7 5 5 4 4 4 4 4 4 3 3 3 3 2 1 1 0 0 0 0 0 0 0
5 5 5 4 4 4 4 4 5 6 6 7 8 8 8 8 9 11 11 9 7 5 4 3 3 3 3 4 4 3 3 3 3 3 2 1 1 0 0 0 0 0 0
6 6 6 6 6 5 5 5 6 6 6 7 7 7 7 7 8 8 8 7 5 4 3 3 3 3 3 3 3 3 2 3 3 3 3 2 1 1 1 1 0 0 0
5 6 7 7 7 6 6 6 7 8 7 7 6 6 5 5 5 5 4 4 3 2 2 3 3 3 3 3 3 3 3 3 4 4 3 2 2 2 2 2 1 0 0
6 6 7 8 9 8 7 6 7 8 8 7 6 5 4 3 3 3 2 1 1 1 2 3 3 3 3 3 3 3 4 4 4 4 3 2 2 2 2 2 1 0 0
9 10 11 12 13 11 8 5 5 6 7 5 4 3 3 2 2 2 1 1 2 2 2 2 3 3 3 3 3 3 4 4 4 3 3 2 2 2 2 2 1 0 0
12 13 14 15 16 13 7 3 3 4 4 3 3 2 2 2 2 2 2 2 2 2 2 2 2 2 2 2 2 3 3 3 2 2 2 2 2 2 3 2 1 0 0
14 15 16 17 17 13 5 2 2 3 3 2 2 2 2 2 2 2 2 2 2 2 2 2 2 2 2 1 1 2 3 3 2 2 2 3 3 3 3 2 1 1 0
Wind_Speed
3 3 2 1 1 2 2 2 1 1 1 2 2 2 2 2 2 1 4 8 7 6 6 6 5 5 5 5 5 6 6 7 6 7 7 7 7 7 7 7 7 7 7
2 2 2 1 1 1 1 1 1 1 1 0 1 1 2 2 1 2 2 6 8 7 6 6 6 6 5 6 6 7 7 7 7 7 8 8 7 8 7 7 7 7 7
2 1 1 1 1 1 1 1 1 1 1 1 1 1 1 2 1 2 3 2 5 8 8 6 6 6 6 6 7 8 8 8 8 8 8 9 8 8 8 8 8 8 8
2 2 1 1 1 1 1 1 1 0 0 0 0 1 1 1 2 2 2 2 2 3 6 7 7 6 7 7 8 8 8 8 8 8 9 9 9 9 9 8 8 8 8
3 2 1 1 1 1 1 1 1 1 0 1 1 1 1 1 1 2 2 2 2 2 2 6 7 7 7 7 8 8 8 8 8 8 9 10 10 10 9 9 9 9 9
3 2 2 2 1 1 1 0 0 0 1 1 2 1 1 1 1 1 2 2 2 2 2 1 3 6 8 7 7 7 7 7 8 8 9 9 10 10 10 9 9 9 9
3 2 2 2 2 1 1 2 1 1 1 0 1 1 1 1 1 1 1 1 1 1 2 2 2 2 3 7 6 5 6 6 7 8 8 9 9 9 9 9 9 9 10
4 4 3 3 3 2 3 2 2 2 1 1 2 2 2 3 3 1 2 2 1 1 2 2 2 2 3 2 4 6 5 5 6 6 7 8 9 9 9 10 10 10 10
4 3 3 3 3 4 2 3 3 3 2 2 2 3 2 1 0 2 2 2 1 1 1 1 2 2 2 2 2 5 4 4 5 5 6 6 7 8 8 9 9 10 11
4 4 4 4 4 3 3 4 3 3 3 3 2 2 2 3 2 1 2 2 2 2 2 1 1 1 2 2 1 2 3 3 4 4 5 5 5 6 7 8 9 10 10
4 4 4 4 4 4 3 3 3 4 3 3 3 2 2 3 4 3 2 2 2 2 1 2 2 2 1 1 1 2 4 2 3 4 4 5 5 5 5 7 8 10 10
4 5 5 4 4 4 4 4 4 5 4 3 3 3 3 3 3 3 3 3 2 2 2 2 2 2 1 1 1 4 4 2 2 2 3 3 4 4 5 6 6 7 8
4 5 5 4 4 4 4 4 5 4 5 5 5 4 3 4 3 3 3 3 3 2 2 3 2 2 2 1 1 4 4 3 2 2 3 3 3 4 4 4 5 6 6
4 4 5 5 5 5 6 5 5 5 4 5 6 5 4 4 4 4 4 4 4 4 3 3 2 2 2 2 1 3 2 4 3 3 3 3 3 3 3 3 3 4 5
5 5 5 6 6 6 6 6 5 5 5 6 6 6 5 4 4 4 4 4 5 4 3 3 3 2 2 2 1 3 2 3 3 3 3 3 3 3 3 3 3 3 3
6 6 6 7 6 6 6 6 6 5 6 6 5 5 5 5 4 4 4 4 5 5 5 2 3 2 2 2 2 3 3 3 5 4 4 4 3 3 3 3 2 2 2
7 7 7 7 7 7 7 7 7 6 7 7 6 6 6 6 5 4 4 5 5 5 5 4 3 2 3 4 2 4 4 4 3 6 5 4 4 3 3 3 3 2 2
8 8 8 8 8 8 7 8 8 7 7 7 7 6 7 5 6 6 5 6 4 4 5 5 4 4 4 4 4 5 5 4 3 5 7 6 5 4 3 3 3 3 2
8 8 8 8 8 8 8 8 8 7 7 7 7 7 6 6 6 5 6 5 4 5 5 5 5 3 4 3 4 5 5 4 5 4 7 7 6 5 4 4 4 3 3
8 8 8 8 8 8 8 7 7 7 7 7 7 7 7 7 7 6 6 6 5 5 5 5 4 4 3 3 4 5 4 4 4 3 2 3 5 7 6 5 4 3 3
8 8 8 8 8 8 7 7 7 7 7 7 7 6 6 5 5 5 5 5 5 5 5 5 5 4 4 4 4 4 4 4 3 3 2 3 3 4 4 5 4 3 3
7 7 8 8 8 6 4 6 7 7 6 6 6 6 6 6 5 5 5 5 5 6 6 5 5 5 5 5 4 5 4 4 3 2 3 3 2 2 2 1 4 5 3
7 7 7 7 6 5 5 6 7 6 6 5 5 5 5 3 4 4 4 6 5 5 5 6 6 6 5 4 4 5 4 4 4 2 3 4 3 2 2 2 6 5 4
6 5 5 5 5 4 5 5 6 7 5 5 4 4 4 3 3 2 4 4 4 3 4 5 4 5 4 3 4 5 4 4 4 3 3 4 2 2 2 2 7 6 5
5 5 4 4 4 3 4 4 5 5 4 4 4 4 4 4 2 2 4 4 3 2 1 1 1 1 1 1 2 3 3 4 4 2 2 3 2 2 2 3 5 7 6
4 4 3 4 4 4 4 5 6 4 4 4 3 4 3 2 2 3 5 4 4 3 2 2 2 3 2 3 4 4 3 3 3 2 1 2 3 3 3 2 2 3 4
Wind_Direction
139 132 128 133 156 129 160 163 158 148 196 194 210 191 210 206 224 213 146 164 184 194 196 195 197 205 206 208 205 202 202 203 205 206 204 201 202 203 205 205 206 205 205
131 149 153 155 150 176 135 180 157 189 249 274 232 211 234 219 186 229 199 168 182 191 197 203 208 209 212 214 211 208 209 211 212 212 208 205 206 209 212 211 210 210 210
144 169 152 181 149 180 162 219 186 211 217 182 166 224 235 235 199 219 226 206 183 184 195 208 214 215 217 221 220 217 214 215 217 217 215 211 211 213 217 217 215 213 211
179 202 181 172 139 193 203 216 244 231 7 285 227 269 243 204 215 225 225 213 214 190 183 195 212 219 223 226 230 227 220 218 219 219 216 215 214 215 218 220 219 216 214
187 207 189 113 197 199 218 266 62 313 273 304 246 200 248 231 221 226 227 222 204 216 201 168 197 213 221 228 232 234 231 225 221 221 223 223 221 218 219 222 222 218 217
195 211 189 168 227 210 202 217 65 334 296 308 315 12 279 235 225 206 223 203 184 198 222 202 192 198 207 221 230 233 228 226 223 222 226 229 227 223 220 222 225 222 221
199 211 228 174 219 210 221 225 212 202 215 195 266 237 204 189 185 178 202 222 178 196 216 222 242 253 191 192 209 225 226 233 234 231 230 230 228 224 223 224 227 225 224
209 200 206 217 209 207 207 212 211 257 254 219 270 274 228 179 177 156 181 189 220 212 221 219 239 245 275 233 168 193 217 232 242 244 237 232 230 228 227 226 226 227 228
212 221 207 225 223 232 214 220 220 225 251 241 253 280 288 294 168 167 183 195 207 256 261 252 245 251 252 258 207 169 191 220 238 247 244 238 233 230 230 228 227 227 230
215 216 217 224 234 240 225 229 212 233 239 251 233 253 284 320 285 234 195 181 197 231 267 281 284 240 244 245 170 101 158 205 237 247 249 247 238 232 231 231 230 231 231
216 219 215 223 229 238 236 244 234 238 237 246 254 241 233 235 247 265 263 246 226 227 240 263 282 285 257 246 237 120 139 184 241 249 253 252 247 241 235 237 240 239 239
211 212 213 217 224 233 226 228 229 226 240 250 256 249 246 247 245 252 257 246 244 231 236 262 255 250 243 240 175 97 135 162 210 239 246 250 252 244 240 241 245 248 248
211 207 214 213 222 225 230 231 229 239 232 236 239 242 249 254 253 254 258 264 270 248 221 228 228 240 237 229 158 136 156 179 202 221 231 238 247 257 260 256 253 254 257
225 209 212 216 219 225 231 231 237 229 225 233 240 244 245 248 249 246 249 259 261 251 227 232 230 227 245 246 118 201 189 178 200 219 232 237 240 246 254 259 261 260 257
225 214 215 218 220 222 230 235 239 238 235 239 238 229 237 238 240 244 243 249 260 267 256 211 226 202 235 242 187 239 247 170 188 209 219 224 230 241 250 248 249 249 248
232 225 219 220 222 222 224 231 236 233 237 242 248 251 249 246 240 240 238 239 246 258 268 251 237 227 258 268 206 248 253 193 196 205 212 213 219 231 236 230 237 234 228
227 228 228 227 227 226 225 228 237 236 238 242 244 241 242 252 247 242 236 236 240 244 252 259 255 230 238 261 259 263 256 248 211 187 198 208 217 222 221 222 229 228 227
229 227 229 229 230 229 227 229 234 234 237 241 244 246 247 243 240 249 244 241 240 244 251 259 257 246 238 243 249 258 260 254 258 170 183 201 209 210 217 226 231 229 229
232 233 229 231 234 233 229 230 234 236 239 242 243 242 243 244 244 243 244 243 241 239 245 254 255 254 254 250 256 255 257 257 259 197 186 192 196 205 218 222 223 225 224
231 232 232 232 232 233 232 231 234 238 240 241 241 242 241 239 238 239 239 240 242 247 243 248 252 249 249 248 251 254 248 236 256 256 218 202 187 197 206 206 201 204 214
234 232 232 232 233 232 233 231 233 235 239 240 239 242 246 249 259 257 258 247 244 246 244 244 247 250 244 240 248 257 262 261 244 246 242 231 203 208 194 188 183 180 200
237 235 232 232 233 236 225 226 235 235 236 238 238 238 240 236 239 234 249 256 256 250 253 255 251 251 249 247 252 256 258 259 256 228 253 255 241 233 225 202 144 159 183
233 234 235 230 230 230 211 214 222 231 235 236 236 239 247 240 238 247 229 226 234 241 251 261 261 263 260 254 250 250 253 268 275 272 254 250 236 236 228 147 138 160 180
232 229 231 229 228 216 191 199 208 223 233 232 233 233 238 243 243 245 247 238 238 238 240 245 259 267 270 262 247 250 254 251 247 240 246 259 246 248 240 180 155 169 184
233 227 223 227 228 205 169 181 198 222 219 227 228 227 225 226 204 233 230 231 236 235 208 185 288 304 338 272 266 257 243 241 243 233 224 261 259 253 241 219 164 171 186
230 228 219 223 217 207 169 177 201 222 216 220 216 216 201 206 196 222 223 221 231 238 236 206 186 195 213 199 203 235 252 257 260 249 190 260 257 254 238 208 208 191 195